Location: Clarac
(43.2219°N, 0.2460°E)
Time: 03:28:59
(UTC+00:00)

Daily predictions for brighter satellites

Satellite Brightness Start Highest point End
(mag) Time Altitude Azimuth Time Altitude Azimuth Time Altitude Azimuth
SL-16 R/B 4.0 01:19:18 32° NNE 01:19:18 32° NNE 01:23:19 10° N
Cosmos 2278 Rocket 4.4 01:47:12 18° NNW 01:47:12 18° NNW 01:49:15 10° N
Cosmos 1943 Rocket 4.0 01:48:36 26° N 01:48:36 26° N 01:51:02 10° NNE
CZ-2D R/B 4.0 01:54:47 10° NNE 01:57:00 26° N 01:57:00 26° N
Resurs 1-4 Rocket 3.9 01:56:55 10° N 01:59:10 26° N 01:59:10 26° N
IDEFIX/ARIANE 42P 4.2 02:09:28 10° NNE 02:11:53 28° N 02:11:53 28° N
SeaSat 1 4.0 02:19:00 10° NNE 02:21:49 33° NE 02:21:49 33° NE
ATLAS CENTAUR R/B 3.8 02:27:11 22° NNE 02:27:11 22° NNE 02:28:45 10° NNE
Lacrosse 5 3.5 02:29:14 31° NNE 02:29:14 31° NNE 02:32:10 10° NE
Cosmos 2285 Rocket 4.4 02:31:11 58° N 02:31:11 58° N 02:36:12 10° NNE
ATLAS 5 CENTAUR R/B 4.2 02:33:43 13° N 02:33:43 13° N 02:34:22 10° NNE
Cosmos 1709 Rocket 4.1 02:55:58 62° NNW 02:55:58 62° NNW 03:01:15 10° N
Cosmos 2181 Rocket 4.2 02:51:44 10° N 02:58:10 70° E 03:00:36 40° SSE
SL-16 R/B 4.0 03:04:22 23° NW 03:04:22 23° NW 03:06:58 10° NNW
Cosmos 2369 Rocket 2.9 03:03:42 42° NNW 03:03:42 42° NNW 03:08:06 10° NNE
ADEOS II 3.4 02:58:21 10° N 03:01:24 29° NNW 03:01:24 29° NNW
Meteor 2-20 Rocket 4.4 02:59:16 10° N 03:05:23 81° E 03:06:36 59° SSE
Helios 1A 4.4 03:05:41 29° ESE 03:06:54 35° ENE 03:10:41 10° N
Cosmos 923 Rocket 4.1 03:08:46 66° ESE 03:08:47 66° ESE 03:13:58 10° NNE
CZ-2C R/B 4.4 03:09:17 10° NNE 03:13:34 32° E 03:16:15 19° SE
Cosmos 1833 4.3 03:08:56 10° NNW 03:13:40 61° NW 03:13:40 61° NW
CZ-2C R/B 3.0 03:10:32 10° NNE 03:15:15 52° E 03:16:13 45° SE
Cosmos 1680 Rocket 3.9 03:16:16 51° SE 03:17:08 58° ESE 03:22:19 10° NNE
Meteor 1-26 Rocket 4.3 03:16:41 54° SSE 03:17:55 72° E 03:23:39 10° NNE
NOSS 3-3 (A) 3.8 03:18:44 64° WNW 03:19:03 65° NW 03:25:25 10° NNE
NOSS 3-3 (C) 3.8 03:18:50 65° WNW 03:19:09 66° NW 03:25:32 10° NNE
BREEZE-M DEB (TANK) 4.1 03:17:33 48° W 03:19:33 72° NNW 03:23:11 10° ENE
Cosmos 1842 Rocket 3.8 03:21:11 66° NE 03:21:11 66° NE 03:25:01 10° N
CZ-2C R/B 2.8 03:19:30 22° SSE 03:23:13 79° ENE 03:28:46 10° N
FENGYUN 3A 3.6 03:17:52 10° N 03:23:11 64° WNW 03:23:11 64° WNW
Cosmos 2112 Rocket 4.3 03:26:32 45° SSE 03:27:57 62° ESE 03:33:10 10° NNE
Cosmos 1943 Rocket 4.4 03:30:06 11° NW 03:30:28 11° NW 03:32:18 10° NNW
Genesis I 3.9 03:30:52 51° ESE 03:30:52 51° ESE 03:34:24 10° NE
IRS-1D 3.4 03:27:22 10° N 03:32:11 62° WNW 03:32:11 62° WNW
ARIANE 5 R/B 4.3 03:27:52 10° NE 03:32:23 29° E 03:36:53 10° SSE
Timation 1 Rocket 4.3 03:28:20 10° NNW 03:34:24 87° ENE 03:40:23 10° SSE
ARGOS Delta rocket 4.4 03:36:53 39° NW 03:36:53 39° NW 03:39:50 10° NNW
ALOS 2.4 03:31:37 10° N 03:35:46 55° NW 03:35:46 55° NW
Cosmos 2056 Rocket 4.1 03:33:40 10° NNW 03:38:47 56° ENE 03:43:57 10° SE
CZ-2D R/B 4.3 03:37:11 10° NNW 03:38:19 12° NW 03:38:19 12° NW
Cosmos 2074 Rocket 3.9 03:37:02 33° S 03:40:08 87° W 03:46:29 10° N
Resurs 1-4 Rocket 4.3 03:39:28 10° NW 03:40:15 11° NW 03:40:15 11° NW
Cosmos 1500 Rocket 4.0 03:37:51 10° N 03:42:08 59° E 03:46:24 10° SSE
Cosmos 1867 3.4 03:39:55 10° NW 03:45:21 68° WSW 03:50:44 10° SSE
Cosmos 1805 Rocket 4.4 03:44:43 10° N 03:49:03 50° ENE 03:53:22 10° SSE
USA 276 3.2 03:51:00 38° NE 03:51:00 38° NE 03:52:57 10° ENE
Cosmos 1624 Rocket 4.2 03:45:46 10° NNW 03:51:06 71° ENE 03:56:23 10° SSE
Cosmos 1420 Rocket 4.2 03:48:21 10° NNW 03:53:34 71° ENE 03:58:43 10° SSE
Cosmos 2221 3.9 03:56:25 24° NW 03:56:25 24° NW 03:59:01 10° NNW
Meteor 2-6 Rocket 4.5 03:52:39 12° S 03:58:07 77° E 04:04:05 10° NNE
Meteor 1-14 Rocket 4.2 03:53:05 10° N 03:58:39 85° E 04:04:15 10° S
CBERS-1 4.0 03:54:55 10° N 04:00:01 67° WNW 04:02:11 34° SW
SeaSat 1 3.8 03:57:14 10° N 04:00:59 22° NW 04:01:35 22° WNW
USA 281 4.4 03:57:05 10° SE 04:03:10 43° NE 04:09:18 10° NNW
ATLAS CENTAUR R/B 3.6 04:02:53 14° NW 04:03:24 14° NW 04:05:46 10° N
Cosmos 1461 3.0 04:01:55 40° SSW 04:03:28 83° ESE 04:08:01 10° NE
Cosmos 1743 4.1 04:05:25 10° N 04:08:57 39° ENE 04:12:28 10° SSE
Cosmos 1295 Rocket 4.4 04:05:24 15° SSW 04:10:41 71° W 04:16:59 10° N
Lacrosse 5 3.8 04:08:25 13° NW 04:11:17 20° NNW 04:14:59 10° NNE
PAYLOAD A 4.3 04:09:35 10° N 04:14:43 48° WNW 04:17:11 27° SW
GEOS 3 Rocket 3.5 04:10:08 10° SSE 04:15:19 74° SW 04:20:38 10° NW
SL-27 R/B 2.0 04:14:08 10° NNW 04:17:19 70° WSW 04:20:28 10° S
Cosmos 1151 Rocket 3.6 04:13:44 10° S 04:17:59 58° E 04:22:14 10° NNE
Envisat 3.0 04:21:33 10° N 04:26:36 65° WNW 04:31:27 11° SSW
DELTA 2 R/B (1) 3.8 04:27:19 24° WSW 04:30:39 61° S 04:36:11 10° E
IRS-1C 4.1 04:25:24 10° N 04:30:44 75° WNW 04:36:03 10° SSW
Cosmos 1697 Rocket 4.4 04:27:08 10° SSE 04:32:05 33° ESE 04:37:02 10° NE
YAOGAN 6 3.1 04:30:53 10° N 04:34:10 37° WNW 04:35:38 25° WSW
COSMOS 2455 3.1 04:29:57 10° SSW 04:35:55 73° ESE 04:41:57 10° NE
Meteor 1-27 Rocket 4.2 04:30:17 10° S 04:36:02 65° E 04:41:41 10° NNE
Cosmos 1339 Rocket 4.4 04:30:28 10° N 04:36:35 90° WNW 04:42:45 10° S
Cosmos 1666 Rocket 4.1 04:32:21 10° N 04:36:38 60° E 04:40:55 10° SSE
SL-19 R/B 4.2 04:31:38 10° N 04:36:44 54° WNW 04:41:46 10° SW
Sich 1 3.1 04:33:13 10° NNW 04:37:34 56° W 04:41:50 10° S
Cosmos 1437 Rocket 3.7 04:36:46 10° N 04:40:31 50° ENE 04:44:11 10° SSE
Cosmos 405 Rocket 2.9 04:37:37 10° S 04:41:11 69° E 04:44:48 10° NNE
Helios 1A 4.2 04:42:07 20° W 04:42:23 20° W 04:45:26 10° NW
ATLAS 2AS CENTAUR R/B 4.4 04:38:56 10° NNW 04:45:11 32° NE 04:51:07 10° E
Cosmos 1743 Rocket 4.3 04:42:43 10° NNW 04:46:42 32° W 04:50:40 10° SSW
Cosmos 1536 2.7 04:44:04 10° N 04:48:02 88° WSW 04:52:01 10° S
SAR-Lupe-2 4.2 04:45:16 10° N 04:48:35 36° WNW 04:51:21 13° SW
ERS-1 4.5 04:45:44 10° N 04:50:38 59° WNW 04:55:29 10° SSW
Cosmos 1633 Rocket 3.4 04:46:15 10° N 04:50:41 71° E 04:55:02 10° SSE
CZ-2C R/B 3.8 04:49:40 10° NNW 04:53:04 20° WNW 04:55:34 14° W
CZ-2C R/B 3.8 04:49:17 10° N 04:53:22 29° WNW 04:57:19 11° SW
Cosmos 2297 Rocket 2.3 04:48:55 10° NNW 04:54:37 86° ENE 05:00:17 10° SSE
H-2A R/B 2.7 04:54:16 10° N 04:57:47 53° WNW 05:01:16 10° SSW
CZ-2D R/B 3.6 04:54:45 10° N 04:58:54 52° WNW 05:02:56 10° SSW
NOAA 11 4.3 04:53:54 10° N 04:59:13 56° WNW 05:04:30 10° SSW
Cosmos 1484 Rocket 3.7 04:56:11 10° N 04:59:24 28° WNW 05:02:39 10° SW
Meteor 1-11 Rocket 3.7 04:56:52 10° NNW 05:02:21 62° W 05:07:46 10° S
NOSS 3-4 (A) 4.1 04:56:58 10° NW 05:03:50 51° WSW 05:11:33 10° S
NOSS 3-4 (C) 4.1 04:57:04 10° NW 05:03:57 51° WSW 05:11:41 10° S
CZ-2C R/B 4.2 05:01:01 10° WSW 05:04:03 15° W 05:07:05 10° NW
Cosmos 2219 4.2 05:04:17 10° NNW 05:09:50 52° ENE 05:15:22 10° SE
SJ-12 4.1 05:06:07 10° NNE 05:10:09 76° ESE 05:14:09 10° S
Cosmos 2227 Rocket 2.6 05:05:27 10° NNW 05:11:08 71° ENE 05:16:44 10° SSE
ARIANE 5 R/B 3.2 05:06:46 10° N 05:11:29 36° WNW 05:16:12 10° SW
GP-B 3.7 05:08:44 10° NNW 05:12:49 37° W 05:16:51 10° SSW
CZ-4C R/B 4.3 05:10:08 10° SE 05:13:24 45° ENE 05:16:45 10° N
NOSS 2-1 (C) 4.2 05:09:12 10° NW 05:13:43 56° WSW 05:20:05 10° SSE
USA 290 4.5 05:11:50 10° SSE 05:14:40 29° ESE 05:17:30 10° NE
NOSS 2-1 (D) 4.3 05:14:15 10° NW 05:18:45 51° WSW 05:25:00 10° SSE
H-2A R/B 2.7 05:15:19 10° NNE 05:20:11 59° E 05:25:01 10° S
Meteor 1-19 Rocket 4.4 05:14:26 10° S 05:20:16 84° W 05:26:17 10° N
Cosmos 2218 Rocket 4.1 05:15:52 10° SSW 05:22:06 63° W 05:28:28 10° N
COSMO-SKYMED 1 2.5 05:18:50 10° S 05:23:09 74° WSW 05:27:30 10° NNW
Cosmos 1470 Rocket 3.5 05:19:52 10° N 05:24:18 83° W 05:28:38 10° S
Spot 4 Rocket 4.1 05:20:30 10° N 05:25:34 59° WNW 05:30:36 10° SSW
